Regional Weather Roundup
Issued by NWS Newport/Morehead, NC

Current Version | Previous Version | Text Only | Print | Product List | Glossary On
Versions: 1 2 3 4 5 6 7 8 9 10 11 12 13 14 15 16 17 18 19 20 21 22 23 24 25 26 27 28 29 30 31 32 33 34 35 36 37 38 39 40 41 42 43 44 45 46 47 48 49 50
000
ASUS42 KMHX 231125
RWRMHX
WEATHER ROUNDUP FOR EASTERN NORTH CAROLINA
NATIONAL WEATHER SERVICE NEWPORT/MOREHEAD CITY NC
600 AM EST MON JAN 23 2017

NOTE: "FAIR" INDICATES FEW OR NO CLOUDS BELOW 12,000 FEET
WITH NO SIGNIFICANT WEATHER AND/OR OBSTRUCTIONS TO VISIBILITY

NCZ015>017-031-032-045>047-102-103-231200-
NORTH COAST

CITY           SKY/WX    TMP DP  RH WIND       PRES   REMARKS
EDENTON        CLOUDY    58  57  96 E16G24    29.25F
ELIZABETH CITY LGT RAIN  54  54 100 E12       29.30F
KITTY HAWK     NOT AVBL
MANTEO         RAIN      57  57 100 SE10      29.30F

$$

NCZ045>047-081-094-103-104-231200-
CENTRAL COAST

CITY           SKY/WX    TMP DP  RH WIND       PRES   REMARKS
FRISCO         LGT RAIN  65  63  93 S12G22    29.28S FOG

$$

NCZ095-097-098-100-101-231200-
SOUTHERN COAST

CITY           SKY/WX    TMP DP  RH WIND       PRES   REMARKS
BEAUFORT       CLOUDY    62  59  90 SW16      29.27R
CEDAR ISLAND   NOT AVBL
JACKSONVILLE   PTCLDY    60  60 100 SW9       29.25R
PINEY ISLAND   CLOUDY   N/A N/A N/A S8        29.26S
WILMINGTON     CLEAR     57  53  86 SW13      29.28R


$$

NCZ011>013-027>030-043-044-078>080-089-090>093-098-231200-
COASTAL PLAIN

CITY           SKY/WX    TMP DP  RH WIND       PRES   REMARKS
AHOSKIE          N/A     51  50  97 E8        29.27R
CLINTON        PTCLDY    59  57  94 SW10      29.25R
ELIZABETHTOWN  CLEAR     54  50  87 SW6       29.27R
GOLDSBORO      CLOUDY    55  55 100 E8        29.22S
GREENVILLE     CLOUDY    54  54 100 E7        29.30R
HAVELOCK       PTCLDY    57  56  96 S8        29.27R
KENANSVILLE    PTCLDY    57  57 100 CALM      29.24R FOG
KINSTON        CLOUDY    56  56 100 SE3       29.25S
NEW BERN       CLOUDY    56  55  97 S3        29.27R
RICHLANDS      PTCLDY    54  54 100 S6        29.26R FOG
ROCKY MOUNT    CLOUDY    53  53 100 VRB7      29.25R
WASHINGTON     CLOUDY    53  52  98 E8          N/A
WHITEVILLE     CLEAR     54  48  82 SW7       29.28R

$$

AMZ130-135-150-152-154-156-158-170-250-252-270-ANZ085-086-088-633-658-670-231200-
MARINE OBSERVATIONS

STATION/POSITION TIME  TEMP    WIND        PRES    WAVE   SWELL
                       AIR SEA DIR/SP/G            HT/PER HT/PER
                 (UTC) (F)     (DEG/KT/KT) (MB)    (FT/S) (FT/S)
CHESAPEAKE LIGHT NOT AVBL
64 E VA BEACH    1050   60 56   80/ 14/ 16  994.1    5/12   3/12
DUCK             1100   53 46   70/ 18/ 22  992.1
2 E DUCK         1100      46                N/A     3/13   2/13
OREGON INLET     1100   55 50   60/ 10/ 16  991.7
13E OREGON INLT  NOT AVBL
HATTERAS CG      1100   65 55  190/  9/ 15  991.2
DIAMOND BUOY     1050   71 72  170/ 25/ 31  991.1   10/ 6   3/13
CAPE LOOKOUT     1100   62     230/ 12/ 16  991.0
BEAUFORT LAB     1100   61 52  220/  7/ 12  990.2
30 SE NEW RVR IN 1108   63 70  250/ 23/ 31  991.3
30 SE NEW RVR IN 1113      70                N/A    10/ 8   2/13
27 SE WRIGHTSVLE 1108   61 67  220/ 23/ 31  989.9
5 SE WRIGHTSVLE  1108   56     220/ 17/ 31  991.8
225 S CAPE HAT   1050   67 71  210/ 23/ 31  997.2   14/10  11/10
41 SE CHARLESTON 1050   64 66  220/ 16/ 21  992.6    9/10   7/10

$$




USA.gov is the U.S. government's official web portal to all federal, state and local government web resources and services.